Regional Weather Roundup
Issued by NWS Bismarck, ND

Home | Current Version | Previous Version | Text Only | Print | Product List | Glossary On
Versions: 1 2 3 4 5 6 7 8 9 10 11 12 13 14 15 16 17 18 19 20 21 22 23 24 25 26 27 28 29 30 31 32 33 34 35 36 37 38 39 40 41 42 43 44 45 46 47 48 49 50
000
ASUS43 KBIS 171410
RWRBIS

NWR BROADCAST TEXT
NATIONAL WEATHER SERVICE BISMARCK ND
800 AM CST TUE JAN 17 2017

NOTE: "FAIR" INDICATES FEW OR NO CLOUDS BELOW 12,000 FEET WITH NO
SIGNIFICANT WEATHER AND/OR OBSTRUCTIONS TO VISIBILITY.


CITY           SKY/WX    TMP DP  RH WIND       PRES   REMARKS
WILLISTON      FAIR       9   5  84 S8        29.80F WCI  -3
MINOT          FAIR      17  10  74 SW10      29.80F WCI   5
MINOT AFB      FAIR      15  10  78 S8        29.79F WCI   4
BISMARCK       FAIR       2  -2  83 SE3       29.94F
DICKINSON      FAIR      16   8  71 S16       29.81F WCI   1
GARRISON         N/A      5   1  83 S5        29.84F WCI  -4
HETTINGER ARPT FAIR       5   1  83 CALM      29.89F
JAMESTOWN      FAIR       5   2  87 CALM      29.93S
CARRINGTON     FAIR      10   7  85 SW7       29.92F WCI   0
HAZEN            N/A    N/A N/A N/A CALM      29.89F
MANDAN         FAIR      10   7  85 S13       29.91F WCI  -5
RUGBY            N/A      9   7  92 S6        29.85F WCI  -1
STANLEY        FAIR      12   9  85 CALM      29.80F
TIOGA          FAIR      18  12  79 SW23      29.77F WCI   0
WATFORD CITY   FAIR       9   3  78 SW7       29.80F WCI  -3
$$

CITY           SKY/WX    TMP DP  RH WIND       PRES   REMARKS
GRAND FORKS    FAIR       2  -2  83 S7        29.93F WCI -11
GRAND FORKS AF FAIR       8   4  84 SW7       29.92F WCI  -3
DEVILS LAKE    FAIR       9   6  88 S5        29.89F WCI   1
FARGO          FAIR       5   2  87 S6        29.97F WCI  -6
CAVALIER         N/A      3   0  85 S7        29.88F WCI  -9
GRAFTON        FAIR       1   0  92 S8        29.92F WCI -12
GWINNER        FAIR       9   7  92 S7        29.97S WCI  -3
ROLLA            N/A    N/A N/A N/A MISG        N/A
$$

CITY           SKY/WX    TMP DP  RH WIND       PRES   REMARKS
ABERDEEN       FAIR      -1  -5  82 SW6       30.00F WCI -13
MOBRIDGE       FAIR       8   2  76 SE5       29.95S WCI   0
BUFFALO          N/A     21   9  59 SW10      29.83F WCI  10
RAPID CITY     FAIR      11   7  84 E3        29.94F
GLASGOW        FAIR      13   8  81 SE9       29.74F WCI   1
SIDNEY         FAIR      13   7  77 S13       29.81F WCI  -2
WOLF POINT     FAIR       2  -4  76 CALM      29.78F
GLENDIVE       FAIR      12   6  77 S18       29.83F WCI  -6
MILES CITY     FAIR       8   1  73 S8        29.86F WCI  -4
$$

CITY           SKY/WX    TMP DP  RH WIND       PRES   REMARKS
BILLINGS       FAIR      26  12  55 SW25      29.88S WCI  11
GREAT FALLS    FAIR      34  15  46 SW25      29.84R
REGINA         PTCLDY    18  12  79 SE12      29.58F WCI   5
ESTEVAN        PTCLDY    18  10  73 SW21G28   29.72F WCI   1
$$





USA.gov is the U.S. government's official web portal to all federal, state and local government web resources and services.